Regional Weather Roundup
Issued by NWS Cleveland, OH

Home | Current Version | Previous Version | Text Only | Print | Product List | Glossary Off
Versions: 1 2 3 4 5 6 7 8 9 10 11 12 13 14 15 16 17 18 19 20 21 22 23 24 25 26 27 28 29 30 31 32 33 34 35 36 37 38 39 40 41 42 43 44 45 46 47 48 49 50

000
ASUS41 KCLE 010110
RWRCLE
OHIO REGIONAL WEATHER ROUNDUP
NATIONAL WEATHER SERVICE WILMINGTON, OH
900 PM EDT FRI SEP 30 2016

NOTE: "FAIR" INDICATES FEW OR NO CLOUDS BELOW 12,000 FEET WITH NO
SIGNIFICANT WEATHER AND/OR OBSTRUCTIONS TO VISIBILITY.

OHZ001>008-015>018-024>027-034-035-043-044-010200-
   NORTHWEST OHIO

CITY           SKY/WX    TMP DP  RH WIND       PRES   REMARKS
DEFIANCE       CLOUDY    61  57  87 E9        30.06R
FINDLAY        CLOUDY    61  57  87 NE9       30.04S
TOLEDO EXPRESS CLOUDY    59  59 100 E7        30.07R
TOLEDO EXEC    LGT RAIN  61  60  97 E9        30.08R FOG
LIMA           CLOUDY    59  59 100 NE8       30.04R
$$

OHZ009>014-019>023-028>033-038-089-010200-
   NORTHEAST OHIO

CITY           SKY/WX    TMP DP  RH WIND       PRES   REMARKS
CLE-HOPKINS    CLOUDY    62  55  77 SE12      30.12R
CLE-LAKEFRONT  CLOUDY    62  56  80 VRB7      30.09R
CUY CO. ARPT   CLOUDY    61  59  94 E15       30.10R
LORAIN-ELYRIA  CLOUDY    59  56  89 SE7       30.09F
ASHTABULA      FAIR      59  57  93 SE9       30.14R
AKRON-CANTON   CLOUDY    59  55  87 E10       30.09S
WOOSTER        CLOUDY    59  56  89 E9        30.09R
MANSFIELD      CLOUDY    61  58  90 E8        30.07R
YOUNGSTOWN     CLOUDY    58  54  86 E15       30.11S
$$

OHZ042-051>053-060>062-070>072-077>081-010200-
  SOUTHWEST OHIO

CITY           SKY/WX    TMP DP  RH WIND       PRES   REMARKS
CINC-COVINGTON CLOUDY    58  53  84 S3        30.02R
CINC-LUNKEN    FAIR      56  56 100 CALM      30.03R
HAMILTON       FAIR      56  53  90 CALM      30.03R
DAYTON         MOCLDY    60  58  92 CALM      30.03R
WRIGHT-PAT AFB CLEAR     60  60 100 NE5       30.02R
DAYTON GENERAL CLOUDY    58  55  90 SE3       30.01S
WILMINGTON     FAIR      56  55  97 SE3       30.03R
$$

OHZ036-037-039>041-045>050-054>059-063>069-073>076-082>088-010200-
  CENTRAL AND SOUTHEAST OHIO

CITY           SKY/WX    TMP DP  RH WIND       PRES   REMARKS
COLUMBUS       MOCLDY    62  62 100 E5        30.01S
OSU AIRPORT    CLOUDY    62  62 100 NE6       30.02S
BOLTON FIELD   CLOUDY    61  60  97 CALM      30.03R
RICKENBACK AFB CLOUDY    61  60  99 CALM      30.01S
NEWARK         CLOUDY    62  60  93 CALM      30.03R
MARION         CLOUDY    61  58  90 NE6       30.05R
LANCASTER      CLOUDY    63  62  97 SE3       30.03R
ZANESVILLE     LGT RAIN  63  60  90 E7        30.04R
NEW PHILLY     CLOUDY    62  58  86 E9        30.07R
$$




USA.gov is the U.S. government's official web portal to all federal, state and local government web resources and services.